Location: Unspecified
(33.3110°N, 0.0000°E)
Time: 12:56:27
(UTC+00:00)

OTV 5 (USA 277) - Visible Passes

Search period start: 23 October 2019 00:00
Search period end: 02 November 2019 00:00
Orbit: 310 x 324 km, 54.5° (Epoch: 17 October)

Date Brightness Start Highest point End Pass type
(mag) Time Alt. Az. Time Alt. Az. Time Alt. Az.
23 Oct ? 04:18:45 16° SE 04:18:45 16° SE 04:19:29 10° SE visible
26 Oct ? 18:06:32 10° S 18:08:45 22° SE 18:09:16 21° ESE visible
27 Oct ? 18:20:29 10° SW 18:23:11 89° NNW 18:24:02 39° NE visible
28 Oct ? 18:35:28 10° W 18:37:46 24° NW 18:38:40 20° N visible
31 Oct ? 17:45:30 10° W 17:47:14 15° NW 17:48:59 10° N visible
